Weather History for Sheridan, WY

Change the Weather History Date:

Tuesday, February 12, 2013

  Actual Average Record
Temperature  
Mean Temperature 25 °F 26 °F  
Max Temperature 38 °F 38 °F 64 °F (1934)
Min Temperature 11 °F 14 °F -24 °F (1949)
Degree Days  
Heating Degree Days 40 39  
Month to date heating degree days 456 478  
Since 1 July heating degree days 4651 4938  
Cooling Degree Days 0 0  
Month to date cooling degree days 0 0  
Year to date cooling degree days 0 0  
Moisture  
Dew Point 15 °F    
Average Humidity 63    
Maximum Humidity 78    
Minimum Humidity 47    
Precipitation  
Precipitation 0.00 in 0.02 in 0.53 in (1990)
Month to date precipitation 0.09 0.23  
Year to date precipitation 1.05 0.79  
Sea Level Pressure  
Sea Level Pressure 30.10 in    
Wind  
Wind Speed 2 mph (SW)    
Max Wind Speed 12 mph    
Max Gust Speed 32 mph    
Visibility 10 miles    
Events      
T = Trace of Precipitation, MM = Missing Value Source: NWS Daily Summary

Daily Weather History Graph

Daily Weather History Graph

Search for Another Location

Airport:

Trip Planner

Search our weather history database for the weather conditions in past years. The results will help you decide how hot, cold, wet, or windy it might be!

Date:

Astronomy

Feb. 12, 2013 Rise Set
Actual Time 7:12 AM MST 5:32 PM MST
Civil Twilight 6:42 AM MST 6:02 PM MST
Nautical Twilight 6:07 AM MST 6:37 PM MST
Astronomical Twilight 5:33 AM MST 7:11 PM MST
Moon 8:02 AM MST (2/12) 8:46 PM MST (2/12)
Length of Visible Light 11h 20m
Length of Day
10h 20m
Waxing Crescent, 8% of the Moon is Illuminated
Feb 12
Waxing Crescent
Feb 17
First Quarter
Feb 25
Full
Mar 4
Last Quarter
Mar 11
New

Hourly Weather History & Observations

Time (MST) Temp. Windchill Dew Point Humidity Pressure Visibility Wind Dir Wind Speed Gust Speed Precip Events Conditions
12:53 AM 16.0 °F - 6.1 °F 65% 30.09 in 10.0 mi Calm Calm - N/A   Clear
1:53 AM 17.1 °F - 7.0 °F 65% 30.10 in 10.0 mi Calm Calm - N/A   Clear
2:53 AM 17.1 °F 10.0 °F 7.0 °F 65% 30.11 in 10.0 mi SSW 4.6 mph - N/A   Clear
3:53 AM 16.0 °F 7.4 °F 7.0 °F 68% 30.10 in 10.0 mi SSW 5.8 mph - N/A   Clear
4:53 AM 15.1 °F - 7.0 °F 70% 30.13 in 10.0 mi Calm Calm - N/A   Clear
5:53 AM 16.0 °F 6.3 °F 8.1 °F 71% 30.15 in 10.0 mi SSW 6.9 mph - N/A   Clear
6:53 AM 12.0 °F 4.1 °F 5.0 °F 73% 30.17 in 10.0 mi SW 4.6 mph - N/A   Clear
7:53 AM 15.1 °F - 7.0 °F 70% 30.17 in 10.0 mi Calm Calm - N/A   Clear
8:53 AM 21.0 °F - 10.9 °F 65% 30.17 in 10.0 mi Calm Calm - N/A   Clear
9:53 AM 24.1 °F - 14.0 °F 65% 30.18 in 10.0 mi Calm Calm - N/A   Clear
10:53 AM 30.9 °F - 16.0 °F 54% 30.18 in 10.0 mi Calm Calm - N/A   Clear
11:53 AM 35.1 °F - 18.0 °F 50% 30.14 in 10.0 mi Calm Calm - N/A   Mostly Cloudy
12:53 PM 35.1 °F 32.2 °F 18.0 °F 50% 30.12 in 10.0 mi SW 3.5 mph - N/A   Overcast
1:53 PM 36.0 °F 31.1 °F 21.0 °F 55% 30.10 in 10.0 mi WNW 5.8 mph - N/A   Overcast
2:53 PM 37.0 °F - 19.9 °F 50% 30.09 in 10.0 mi Calm Calm - N/A   Overcast
3:53 PM 36.0 °F 32.1 °F 23.0 °F 59% 30.08 in 10.0 mi West 4.6 mph - N/A   Overcast
4:53 PM 36.0 °F - 23.0 °F 59% 30.06 in 10.0 mi Calm Calm - N/A   Mostly Cloudy
5:53 PM 32.0 °F 28.7 °F 24.1 °F 73% 30.08 in 10.0 mi SW 3.5 mph - N/A   Overcast
6:53 PM 30.9 °F - 24.1 °F 76% 30.10 in 10.0 mi Calm Calm - N/A   Overcast
7:53 PM 32.0 °F 28.7 °F 23.0 °F 69% 30.08 in 10.0 mi SE 3.5 mph - N/A   Overcast
8:53 PM 30.9 °F 26.2 °F 24.1 °F 76% 30.05 in 10.0 mi SSW 4.6 mph - N/A   Overcast
9:53 PM 30.9 °F - 19.9 °F 64% 30.01 in 10.0 mi Calm Calm - N/A   Overcast
10:53 PM 26.1 °F - 19.0 °F 75% 29.98 in 10.0 mi North - - N/A   Clear
11:53 PM 26.1 °F 20.5 °F 16.0 °F 66% 29.95 in 10.0 mi SSW 4.6 mph - N/A   Clear